Wetterdaten: Donnerstag, 03.01.2013
Datum Zeit Temp. I. Temp. A. Boden 5 cm Feuchte A. Sonne Luftdruck Regen Wind Sonnenschein
03.01.2013 00:00 21,5 C -1,1 C -3,1 C 99 % 0 % 1025 hPa 0,0 l/m 0,3 km/h (0 Bft) 0 min
03.01.2013 00:03 21,5 C -1,1 C -3,1 C 99 % 0 % 1025 hPa 0,0 l/m 0,6 km/h (0 Bft) 0 min
03.01.2013 00:06 21,4 C -1,1 C -3,1 C 99 % 0 % 1025 hPa 0,0 l/m 1,8 km/h (1 Bft) 0 min
03.01.2013 00:09 21,4 C -1,1 C -3,1 C 99 % 0 % 1025 hPa 0,0 l/m 0,3 km/h (0 Bft) 0 min
03.01.2013 00:13 21,4 C -1,1 C -3,0 C 99 % 0 % 1025 hPa 0,0 l/m 0,0 km/h (0 Bft) 0 min
03.01.2013 00:16 21,4 C -1,2 C -3,0 C 99 % 0 % 1025 hPa 0,0 l/m 0,0 km/h (0 Bft) 0 min
03.01.2013 00:19 21,4 C -1,2 C -3,1 C 99 % 0 % 1025 hPa 0,0 l/m 0,0 km/h (0 Bft) 0 min
03.01.2013 00:22 21,4 C -1,2 C -3,2 C 99 % 0 % 1025 hPa 0,0 l/m 0,0 km/h (0 Bft) 0 min
03.01.2013 00:25 21,4 C -1,2 C -3,3 C 99 % 0 % 1025 hPa 0,0 l/m 0,4 km/h (0 Bft) 0 min
03.01.2013 00:28 21,4 C -1,2 C -3,0 C 99 % 0 % 1025 hPa 0,0 l/m 0,1 km/h (0 Bft) 0 min
03.01.2013 00:31 21,4 C -1,2 C -3,0 C 99 % 0 % 1025 hPa 0,0 l/m 0,1 km/h (0 Bft) 0 min
03.01.2013 00:34 21,4 C -1,2 C -3,2 C 99 % 0 % 1025 hPa 0,0 l/m 0,0 km/h (0 Bft) 0 min
03.01.2013 00:37 21,3 C -1,2 C -3,4 C 99 % 0 % 1025 hPa 0,0 l/m 0,0 km/h (0 Bft) 0 min
03.01.2013 00:40 21,3 C -1,3 C -3,5 C 99 % 0 % 1025 hPa 0,0 l/m 0,0 km/h (0 Bft) 0 min
03.01.2013 00:43 21,3 C -1,3 C -3,3 C 99 % 0 % 1025 hPa 0,0 l/m 0,0 km/h (0 Bft) 0 min
03.01.2013 00:46 21,3 C -1,2 C -2,8 C 99 % 0 % 1025 hPa 0,0 l/m 0,0 km/h (0 Bft) 0 min
03.01.2013 00:49 21,3 C -1,2 C -2,7 C 99 % 0 % 1025 hPa 0,0 l/m 0,0 km/h (0 Bft) 0 min
03.01.2013 00:52 21,3 C -1,3 C -2,5 C 99 % 0 % 1025 hPa 0,0 l/m 0,0 km/h (0 Bft) 0 min
03.01.2013 00:55 21,3 C -1,3 C -3,3 C 99 % 0 % 1025 hPa 0,0 l/m 0,0 km/h (0 Bft) 0 min
03.01.2013 00:58 21,3 C -1,3 C -3,3 C 99 % 0 % 1025 hPa 0,0 l/m 0,0 km/h (0 Bft) 0 min
03.01.2013 01:01 21,3 C -1,3 C -3,3 C 99 % 0 % 1025 hPa 0,0 l/m 0,0 km/h (0 Bft) 0 min
03.01.2013 01:04 21,3 C -1,3 C -3,3 C 99 % 0 % 1025 hPa 0,0 l/m 0,8 km/h (0 Bft) 0 min
03.01.2013 01:07 21,2 C -1,3 C -3,3 C 99 % 0 % 1025 hPa 0,0 l/m 0,7 km/h (0 Bft) 0 min
03.01.2013 01:10 21,3 C -1,3 C -3,1 C 99 % 0 % 1025 hPa 0,0 l/m 0,0 km/h (0 Bft) 0 min
03.01.2013 01:13 21,2 C -1,3 C -3,2 C 99 % 0 % 1025 hPa 0,0 l/m 0,0 km/h (0 Bft) 0 min
03.01.2013 01:16 21,2 C -1,4 C -3,3 C 99 % 0 % 1025 hPa 0,0 l/m 0,0 km/h (0 Bft) 0 min
03.01.2013 01:19 21,2 C -1,4 C -3,0 C 99 % 0 % 1025 hPa 0,0 l/m 0,0 km/h (0 Bft) 0 min
03.01.2013 01:22 21,2 C -1,4 C -2,7 C 99 % 0 % 1025 hPa 0,0 l/m 0,0 km/h (0 Bft) 0 min
03.01.2013 01:25 21,2 C -1,4 C -2,9 C 99 % 0 % 1025 hPa 0,0 l/m 0,0 km/h (0 Bft) 0 min
03.01.2013 01:28 21,2 C -1,5 C -3,0 C 99 % 0 % 1025 hPa 0,0 l/m 0,1 km/h (0 Bft) 0 min
03.01.2013 01:31 21,2 C -1,5 C -2,9 C 99 % 0 % 1025 hPa 0,0 l/m 0,0 km/h (0 Bft) 0 min
03.01.2013 01:34 21,2 C -1,5 C -2,4 C 99 % 0 % 1025 hPa 0,0 l/m 0,0 km/h (0 Bft) 0 min
03.01.2013 01:37 21,2 C -1,5 C -3,0 C 99 % 0 % 1025 hPa 0,0 l/m 0,0 km/h (0 Bft) 0 min
03.01.2013 01:40 21,2 C -1,5 C -3,4 C 99 % 0 % 1025 hPa 0,0 l/m 0,0 km/h (0 Bft) 0 min
03.01.2013 01:43 21,2 C -1,5 C -3,5 C 99 % 0 % 1025 hPa 0,0 l/m 0,0 km/h (0 Bft) 0 min
03.01.2013 01:46 21,2 C -1,5 C -3,5 C 99 % 0 % 1025 hPa 0,0 l/m 0,0 km/h (0 Bft) 0 min
03.01.2013 01:49 21,2 C -1,5 C -3,3 C 99 % 0 % 1025 hPa 0,0 l/m 2,1 km/h (1 Bft) 0 min
03.01.2013 01:52 21,2 C -1,7 C -3,3 C 99 % 0 % 1025 hPa 0,0 l/m 2,8 km/h (1 Bft) 0 min
03.01.2013 01:55 21,2 C -2,0 C -3,3 C 99 % 0 % 1025 hPa 0,0 l/m 4,3 km/h (1 Bft) 0 min
03.01.2013 01:58 21,2 C -2,2 C -3,3 C 99 % 0 % 1025 hPa 0,0 l/m 4,3 km/h (1 Bft) 0 min
03.01.2013 02:01 21,2 C -2,4 C -3,3 C 99 % 0 % 1025 hPa 0,0 l/m 3,1 km/h (1 Bft) 0 min
03.01.2013 02:04 21,2 C -2,4 C -3,3 C 99 % 0 % 1025 hPa 0,0 l/m 3,1 km/h (1 Bft) 0 min
03.01.2013 02:07 21,1 C -2,4 C -3,4 C 99 % 0 % 1025 hPa 0,0 l/m 1,3 km/h (1 Bft) 0 min
03.01.2013 02:10 21,1 C -2,3 C -3,4 C 99 % 0 % 1025 hPa 0,0 l/m 0,0 km/h (0 Bft) 0 min
03.01.2013 02:13 21,1 C -2,3 C -3,5 C 99 % 0 % 1025 hPa 0,0 l/m 0,0 km/h (0 Bft) 0 min
03.01.2013 02:16 21,2 C -2,3 C -3,6 C 99 % 0 % 1025 hPa 0,0 l/m 0,6 km/h (0 Bft) 0 min
03.01.2013 02:19 21,1 C -2,5 C -3,3 C 99 % 0 % 1025 hPa 0,0 l/m 3,1 km/h (1 Bft) 0 min
03.01.2013 02:22 21,1 C -2,6 C -3,3 C 99 % 0 % 1025 hPa 0,0 l/m 2,2 km/h (1 Bft) 0 min
03.01.2013 02:25 21,1 C -2,6 C -3,4 C 99 % 0 % 1025 hPa 0,0 l/m 0,0 km/h (0 Bft) 0 min
03.01.2013 02:28 21,1 C -2,6 C -3,6 C 99 % 0 % 1025 hPa 0,0 l/m 1,8 km/h (1 Bft) 0 min
03.01.2013 02:31 21,1 C -2,5 C -3,6 C 99 % 0 % 1025 hPa 0,0 l/m 1,3 km/h (1 Bft) 0 min
03.01.2013 02:34 21,1 C -2,5 C -3,8 C 99 % 0 % 1025 hPa 0,0 l/m 0,2 km/h (0 Bft) 0 min
03.01.2013 02:37 21,1 C -2,5 C -3,8 C 99 % 0 % 1025 hPa 0,0 l/m 0,0 km/h (0 Bft) 0 min
03.01.2013 02:40 21,1 C -2,5 C -3,9 C 99 % 0 % 1025 hPa 0,0 l/m 0,0 km/h (0 Bft) 0 min
03.01.2013 02:43 21,1 C -2,5 C -3,9 C 99 % 0 % 1025 hPa 0,0 l/m 0,0 km/h (0 Bft) 0 min
03.01.2013 02:46 21,1 C -2,5 C -3,8 C 99 % 0 % 1025 hPa 0,0 l/m 0,0 km/h (0 Bft) 0 min
03.01.2013 02:49 21,1 C -2,5 C -4,2 C 99 % 0 % 1025 hPa 0,0 l/m 0,0 km/h (0 Bft) 0 min
03.01.2013 02:52 21,1 C -2,5 C -4,2 C 99 % 0 % 1025 hPa 0,0 l/m 0,0 km/h (0 Bft) 0 min
03.01.2013 02:55 21,1 C -2,5 C -3,9 C 99 % 0 % 1025 hPa 0,0 l/m 0,0 km/h (0 Bft) 0 min
03.01.2013 02:58 21,0 C -2,5 C -4,1 C 99 % 0 % 1025 hPa 0,0 l/m 0,0 km/h (0 Bft) 0 min
03.01.2013 03:01 21,1 C -2,6 C -4,1 C 99 % 0 % 1025 hPa 0,0 l/m 0,0 km/h (0 Bft) 0 min
03.01.2013 03:04 21,1 C -2,6 C -4,1 C 99 % 0 % 1025 hPa 0,0 l/m 0,0 km/h (0 Bft) 0 min
03.01.2013 03:07 21,0 C -2,6 C -4,2 C 99 % 0 % 1025 hPa 0,0 l/m 0,0 km/h (0 Bft) 0 min
03.01.2013 03:10 21,1 C -2,6 C -4,2 C 99 % 0 % 1025 hPa 0,0 l/m 0,0 km/h (0 Bft) 0 min
03.01.2013 03:13 21,0 C -2,7 C -4,0 C 99 % 0 % 1025 hPa 0,0 l/m 0,0 km/h (0 Bft) 0 min
03.01.2013 03:16 21,0 C -3,0 C -4,1 C 99 % 0 % 1025 hPa 0,0 l/m 3,0 km/h (1 Bft) 0 min
03.01.2013 03:19 21,0 C -3,1 C -4,1 C 99 % 0 % 1025 hPa 0,0 l/m 3,5 km/h (1 Bft) 0 min
03.01.2013 03:22 21,0 C -3,2 C -3,8 C 99 % 0 % 1025 hPa 0,0 l/m 3,2 km/h (1 Bft) 0 min
03.01.2013 03:25 21,0 C -3,3 C -3,7 C 99 % 0 % 1025 hPa 0,0 l/m 3,0 km/h (1 Bft) 0 min
03.01.2013 03:28 21,0 C -3,3 C -3,7 C 99 % 0 % 1025 hPa 0,0 l/m 3,0 km/h (1 Bft) 0 min
03.01.2013 03:31 21,0 C -3,3 C -3,8 C 99 % 0 % 1025 hPa 0,0 l/m 3,0 km/h (1 Bft) 0 min
03.01.2013 03:34 21,0 C -3,4 C -3,9 C 99 % 0 % 1025 hPa 0,0 l/m 1,4 km/h (1 Bft) 0 min
03.01.2013 03:37 21,0 C -3,4 C -3,9 C 99 % 0 % 1025 hPa 0,0 l/m 0,0 km/h (0 Bft) 0 min
03.01.2013 03:40 21,0 C -3,3 C -3,9 C 99 % 0 % 1025 hPa 0,0 l/m 0,0 km/h (0 Bft) 0 min
03.01.2013 03:43 21,0 C -3,3 C -4,1 C 99 % 0 % 1025 hPa 0,0 l/m 0,0 km/h (0 Bft) 0 min
03.01.2013 03:46 21,0 C -3,4 C -4,1 C 99 % 0 % 1025 hPa 0,0 l/m 0,0 km/h (0 Bft) 0 min
03.01.2013 03:49 21,0 C -3,4 C -1,3 C 99 % 0 % 1025 hPa 0,0 l/m 0,0 km/h (0 Bft) 0 min
03.01.2013 03:52 21,0 C -3,4 C -1,8 C 99 % 0 % 1025 hPa 0,0 l/m 0,0 km/h (0 Bft) 0 min
03.01.2013 03:55 21,0 C -3,3 C -2,1 C 99 % 0 % 1025 hPa 0,0 l/m 0,0 km/h (0 Bft) 0 min
03.01.2013 03:58 21,0 C -3,3 C -2,1 C 99 % 0 % 1025 hPa 0,0 l/m 0,0 km/h (0 Bft) 0 min
03.01.2013 04:01 21,0 C -3,3 C -2,1 C 99 % 0 % 1025 hPa 0,0 l/m 0,0 km/h (0 Bft) 0 min
03.01.2013 04:04 21,0 C -3,3 C -4,1 C 99 % 0 % 1025 hPa 0,0 l/m 0,0 km/h (0 Bft) 0 min
03.01.2013 04:07 21,0 C -3,2 C -4,4 C 99 % 0 % 1025 hPa 0,0 l/m 0,0 km/h (0 Bft) 0 min
03.01.2013 04:10 21,0 C -3,2 C -4,4 C 99 % 0 % 1025 hPa 0,0 l/m 0,0 km/h (0 Bft) 0 min
03.01.2013 04:13 21,0 C -3,2 C -4,3 C 99 % 0 % 1025 hPa 0,0 l/m 0,0 km/h (0 Bft) 0 min
03.01.2013 04:16 21,0 C -3,2 C -4,3 C 99 % 0 % 1025 hPa 0,0 l/m 0,0 km/h (0 Bft) 0 min
03.01.2013 04:19 21,0 C -3,1 C -4,4 C 99 % 0 % 1025 hPa 0,0 l/m 0,0 km/h (0 Bft) 0 min
03.01.2013 04:22 21,0 C -3,1 C -4,1 C 99 % 0 % 1025 hPa 0,0 l/m 0,0 km/h (0 Bft) 0 min
03.01.2013 04:25 21,0 C -3,1 C -4,0 C 99 % 0 % 1025 hPa 0,0 l/m 0,0 km/h (0 Bft) 0 min
03.01.2013 04:28 21,0 C -3,1 C -4,2 C 99 % 0 % 1025 hPa 0,0 l/m 0,0 km/h (0 Bft) 0 min
03.01.2013 04:31 21,1 C -3,2 C -4,2 C 99 % 0 % 1025 hPa 0,0 l/m 0,0 km/h (0 Bft) 0 min
03.01.2013 04:34 21,1 C -3,3 C -4,2 C 99 % 0 % 1025 hPa 0,0 l/m 0,0 km/h (0 Bft) 0 min
03.01.2013 04:37 21,1 C -3,2 C -4,2 C 99 % 0 % 1025 hPa 0,0 l/m 0,0 km/h (0 Bft) 0 min
03.01.2013 04:40 21,1 C -3,2 C -4,2 C 99 % 0 % 1025 hPa 0,0 l/m 0,0 km/h (0 Bft) 0 min
03.01.2013 04:43 21,1 C -3,2 C -4,2 C 99 % 0 % 1025 hPa 0,0 l/m 0,0 km/h (0 Bft) 0 min
03.01.2013 04:46 21,1 C -3,2 C -4,3 C 99 % 0 % 1025 hPa 0,0 l/m 0,0 km/h (0 Bft) 0 min
03.01.2013 04:49 21,1 C -3,2 C -3,7 C 99 % 0 % 1025 hPa 0,0 l/m 0,4 km/h (0 Bft) 0 min
03.01.2013 04:52 21,1 C -3,1 C -3,6 C 99 % 0 % 1025 hPa 0,0 l/m 0,9 km/h (0 Bft) 0 min
03.01.2013 04:55 21,1 C -3,0 C -3,9 C 99 % 0 % 1025 hPa 0,0 l/m 0,1 km/h (0 Bft) 0 min
03.01.2013 04:58 21,1 C -3,0 C -3,9 C 99 % 0 % 1025 hPa 0,0 l/m 1,9 km/h (1 Bft) 0 min
03.01.2013 05:01 21,1 C -2,9 C -3,2 C 99 % 0 % 1025 hPa 0,0 l/m 1,9 km/h (1 Bft) 0 min
03.01.2013 05:04 21,2 C -2,9 C -3,2 C 99 % 0 % 1025 hPa 0,0 l/m 1,2 km/h (1 Bft) 0 min
03.01.2013 05:07 21,1 C -2,7 C -3,0 C 99 % 0 % 1025 hPa 0,0 l/m 3,6 km/h (1 Bft) 0 min
03.01.2013 05:10 21,2 C -2,7 C -3,0 C 99 % 0 % 1025 hPa 0,0 l/m 2,1 km/h (1 Bft) 0 min
03.01.2013 05:13 21,1 C -2,6 C -3,0 C 99 % 0 % 1025 hPa 0,0 l/m 0,0 km/h (0 Bft) 0 min
03.01.2013 05:16 21,2 C -2,6 C -3,1 C 99 % 0 % 1025 hPa 0,0 l/m 0,0 km/h (0 Bft) 0 min
03.01.2013 05:19 21,2 C -2,7 C -3,1 C 99 % 0 % 1025 hPa 0,0 l/m 0,0 km/h (0 Bft) 0 min
03.01.2013 05:22 21,2 C -2,7 C -3,2 C 99 % 0 % 1025 hPa 0,0 l/m 0,1 km/h (0 Bft) 0 min
03.01.2013 05:25 21,2 C -3,0 C -3,0 C 99 % 0 % 1025 hPa 0,0 l/m 0,0 km/h (0 Bft) 0 min
03.01.2013 05:28 21,2 C -3,0 C -3,0 C 99 % 0 % 1025 hPa 0,0 l/m 0,0 km/h (0 Bft) 0 min
03.01.2013 05:31 21,2 C -3,1 C -3,0 C 99 % 0 % 1025 hPa 0,0 l/m 0,0 km/h (0 Bft) 0 min
03.01.2013 05:34 21,2 C -3,1 C -3,0 C 99 % 0 % 1025 hPa 0,0 l/m 0,0 km/h (0 Bft) 0 min
03.01.2013 05:37 21,2 C -3,0 C -3,0 C 99 % 0 % 1025 hPa 0,0 l/m 0,0 km/h (0 Bft) 0 min
03.01.2013 05:40 21,2 C -3,0 C -2,9 C 99 % 0 % 1025 hPa 0,0 l/m 0,0 km/h (0 Bft) 0 min
03.01.2013 05:43 21,2 C -2,9 C -2,8 C 99 % 0 % 1025 hPa 0,0 l/m 0,0 km/h (0 Bft) 0 min
03.01.2013 05:46 21,2 C -2,8 C -2,7 C 99 % 0 % 1026 hPa 0,0 l/m 0,0 km/h (0 Bft) 0 min
03.01.2013 05:49 21,2 C -2,7 C -2,7 C 99 % 0 % 1025 hPa 0,0 l/m 0,0 km/h (0 Bft) 0 min
03.01.2013 05:52 21,2 C -2,7 C -2,7 C 99 % 0 % 1025 hPa 0,0 l/m 0,0 km/h (0 Bft) 0 min
03.01.2013 05:55 21,2 C -2,8 C -2,7 C 99 % 0 % 1025 hPa 0,0 l/m 0,0 km/h (0 Bft) 0 min
03.01.2013 05:58 21,2 C -2,8 C -2,7 C 99 % 0 % 1025 hPa 0,0 l/m 0,0 km/h (0 Bft) 0 min
03.01.2013 06:01 21,2 C -2,8 C -2,7 C 99 % 0 % 1025 hPa 0,0 l/m 0,0 km/h (0 Bft) 0 min
03.01.2013 06:04 21,2 C -2,8 C -2,7 C 99 % 0 % 1025 hPa 0,0 l/m 0,0 km/h (0 Bft) 0 min
03.01.2013 06:07 21,2 C -2,7 C -2,4 C 99 % 0 % 1025 hPa 0,0 l/m 0,2 km/h (0 Bft) 0 min
03.01.2013 06:10 21,2 C -2,7 C -2,3 C 99 % 0 % 1025 hPa 0,0 l/m 0,0 km/h (0 Bft) 0 min
03.01.2013 06:13 21,2 C -2,4 C -2,3 C 99 % 0 % 1026 hPa 0,0 l/m 0,0 km/h (0 Bft) 0 min
03.01.2013 06:16 21,2 C -2,4 C -2,0 C 99 % 0 % 1026 hPa 0,0 l/m 0,0 km/h (0 Bft) 0 min
03.01.2013 06:19 21,2 C -2,4 C -2,2 C 99 % 0 % 1026 hPa 0,0 l/m 0,3 km/h (0 Bft) 0 min
03.01.2013 06:22 21,2 C -2,5 C -2,2 C 99 % 0 % 1026 hPa 0,0 l/m 0,5 km/h (0 Bft) 0 min
03.01.2013 06:25 21,2 C -2,5 C -2,3 C 99 % 0 % 1026 hPa 0,0 l/m 0,1 km/h (0 Bft) 0 min
03.01.2013 06:28 21,2 C -2,5 C -2,3 C 99 % 0 % 1026 hPa 0,0 l/m 0,0 km/h (0 Bft) 0 min
03.01.2013 06:31 21,2 C -2,4 C -2,3 C 99 % 0 % 1026 hPa 0,0 l/m 0,0 km/h (0 Bft) 0 min
03.01.2013 06:34 21,2 C -2,4 C -2,3 C 99 % 0 % 1026 hPa 0,0 l/m 0,0 km/h (0 Bft) 0 min
03.01.2013 06:37 21,2 C -2,4 C -2,2 C 99 % 0 % 1026 hPa 0,0 l/m 0,0 km/h (0 Bft) 0 min
03.01.2013 06:40 21,2 C -2,4 C -2,2 C 99 % 0 % 1026 hPa 0,0 l/m 1,7 km/h (1 Bft) 0 min
03.01.2013 06:43 21,2 C -2,4 C -2,1 C 99 % 0 % 1025 hPa 0,0 l/m 0,1 km/h (0 Bft) 0 min
03.01.2013 06:46 20,7 C -2,4 C -2,1 C 99 % 0 % 1025 hPa 0,0 l/m 0,1 km/h (0 Bft) 0 min
03.01.2013 06:49 19,2 C -2,4 C -2,0 C 99 % 0 % 1025 hPa 0,0 l/m 1,5 km/h (1 Bft) 0 min
03.01.2013 06:52 17,8 C -2,4 C -2,0 C 99 % 0 % 1025 hPa 0,0 l/m 2,1 km/h (1 Bft) 0 min
03.01.2013 06:55 16,7 C -2,4 C -2,1 C 99 % 0 % 1026 hPa 0,0 l/m 0,3 km/h (0 Bft) 0 min
03.01.2013 06:58 16,0 C -2,3 C -2,0 C 99 % 0 % 1026 hPa 0,0 l/m 0,1 km/h (0 Bft) 0 min
03.01.2013 07:01 16,2 C -2,2 C -1,9 C 99 % 0 % 1026 hPa 0,0 l/m 0,0 km/h (0 Bft) 0 min
03.01.2013 07:04 16,9 C -2,1 C -1,7 C 99 % 0 % 1026 hPa 0,0 l/m 0,0 km/h (0 Bft) 0 min
03.01.2013 07:07 18,1 C -2,1 C -1,8 C 99 % 0 % 1026 hPa 0,0 l/m 0,0 km/h (0 Bft) 0 min
03.01.2013 07:10 18,6 C -2,1 C -1,9 C 99 % 0 % 1026 hPa 0,0 l/m 0,0 km/h (0 Bft) 0 min
03.01.2013 07:13 19,6 C -2,1 C -2,0 C 99 % 0 % 1026 hPa 0,0 l/m 0,0 km/h (0 Bft) 0 min
03.01.2013 07:16 20,5 C -2,1 C -2,0 C 99 % 0 % 1026 hPa 0,0 l/m 0,0 km/h (0 Bft) 0 min
03.01.2013 07:19 21,2 C -2,0 C -1,9 C 99 % 0 % 1026 hPa 0,0 l/m 0,0 km/h (0 Bft) 0 min
03.01.2013 07:22 21,7 C -2,1 C -1,8 C 99 % 0 % 1026 hPa 0,0 l/m 0,0 km/h (0 Bft) 0 min
03.01.2013 07:25 21,7 C -2,1 C -1,8 C 99 % 0 % 1026 hPa 0,0 l/m 0,0 km/h (0 Bft) 0 min
03.01.2013 07:28 21,5 C -2,1 C -1,8 C 99 % 0 % 1026 hPa 0,0 l/m 0,0 km/h (0 Bft) 0 min
03.01.2013 07:31 21,3 C -2,1 C -1,8 C 99 % 0 % 1026 hPa 0,0 l/m 0,0 km/h (0 Bft) 0 min
03.01.2013 07:34 21,2 C -2,0 C -1,8 C 99 % 0 % 1026 hPa 0,0 l/m 0,0 km/h (0 Bft) 0 min
03.01.2013 07:37 21,2 C -2,0 C -1,7 C 99 % 0 % 1026 hPa 0,0 l/m 0,0 km/h (0 Bft) 0 min
03.01.2013 07:40 21,2 C -2,0 C -1,7 C 99 % 0 % 1026 hPa 0,0 l/m 0,0 km/h (0 Bft) 0 min
03.01.2013 07:43 21,2 C -2,0 C -1,7 C 99 % 0 % 1026 hPa 0,0 l/m 0,0 km/h (0 Bft) 0 min
03.01.2013 07:46 21,2 C -2,0 C -1,6 C 99 % 0 % 1026 hPa 0,0 l/m 0,0 km/h (0 Bft) 0 min
03.01.2013 07:49 21,2 C -2,0 C -1,6 C 99 % 0 % 1026 hPa 0,0 l/m 0,0 km/h (0 Bft) 0 min
03.01.2013 07:52 21,2 C -2,0 C -1,6 C 99 % 0 % 1026 hPa 0,0 l/m 0,0 km/h (0 Bft) 0 min
03.01.2013 07:55 21,2 C -2,0 C -1,6 C 99 % 0 % 1026 hPa 0,0 l/m 0,7 km/h (0 Bft) 0 min
03.01.2013 07:58 21,2 C -2,0 C -1,5 C 99 % 0 % 1026 hPa 0,0 l/m 0,7 km/h (0 Bft) 0 min
03.01.2013 08:01 21,2 C -2,0 C -1,5 C 99 % 0 % 1026 hPa 0,0 l/m 1,8 km/h (1 Bft) 0 min
03.01.2013 08:04 21,2 C -2,0 C -1,5 C 99 % 1 % 1026 hPa 0,0 l/m 3,0 km/h (1 Bft) 0 min
03.01.2013 08:07 21,2 C -2,0 C -1,5 C 99 % 1 % 1026 hPa 0,0 l/m 0,1 km/h (0 Bft) 0 min
03.01.2013 08:10 21,2 C -2,0 C -1,5 C 99 % 1 % 1026 hPa 0,0 l/m 0,5 km/h (0 Bft) 0 min
03.01.2013 08:13 21,2 C -1,9 C -1,5 C 99 % 1 % 1026 hPa 0,0 l/m 3,1 km/h (1 Bft) 0 min
03.01.2013 08:16 21,2 C -1,9 C -1,4 C 99 % 1 % 1026 hPa 0,0 l/m 0,9 km/h (0 Bft) 0 min
03.01.2013 08:19 16,9 C -1,9 C -1,4 C 99 % 1 % 1026 hPa 0,0 l/m 1,2 km/h (1 Bft) 0 min
03.01.2013 08:22 16,8 C -1,9 C -1,4 C 99 % 2 % 1026 hPa 0,0 l/m 1,9 km/h (1 Bft) 0 min
03.01.2013 08:25 18,0 C -1,9 C -1,3 C 99 % 2 % 1026 hPa 0,0 l/m 2,7 km/h (1 Bft) 0 min
03.01.2013 08:28 18,6 C -1,8 C -1,2 C 99 % 3 % 1026 hPa 0,0 l/m 2,4 km/h (1 Bft) 0 min
03.01.2013 08:31 19,0 C -1,8 C -1,2 C 99 % 3 % 1026 hPa 0,0 l/m 2,5 km/h (1 Bft) 0 min
03.01.2013 08:34 19,4 C -1,8 C -1,1 C 99 % 4 % 1026 hPa 0,0 l/m 2,5 km/h (1 Bft) 0 min
03.01.2013 08:37 19,7 C -1,7 C -1,0 C 99 % 5 % 1026 hPa 0,0 l/m 3,1 km/h (1 Bft) 0 min
03.01.2013 08:40 19,9 C -1,7 C -1,0 C 99 % 5 % 1026 hPa 0,0 l/m 3,4 km/h (1 Bft) 0 min
03.01.2013 08:43 20,1 C -1,7 C -0,9 C 99 % 5 % 1026 hPa 0,0 l/m 3,6 km/h (1 Bft) 0 min
03.01.2013 08:46 20,3 C -1,7 C -0,9 C 99 % 6 % 1026 hPa 0,0 l/m 1,9 km/h (1 Bft) 0 min
03.01.2013 08:49 20,4 C -1,7 C -0,8 C 99 % 7 % 1026 hPa 0,0 l/m 3,6 km/h (1 Bft) 0 min
03.01.2013 08:52 20,6 C -1,6 C -0,8 C 99 % 7 % 1026 hPa 0,0 l/m 3,4 km/h (1 Bft) 0 min
03.01.2013 08:55 20,7 C -1,6 C -0,6 C 99 % 8 % 1026 hPa 0,0 l/m 3,4 km/h (1 Bft) 0 min
03.01.2013 08:58 20,8 C -1,5 C -0,6 C 99 % 8 % 1026 hPa 0,0 l/m 0,1 km/h (0 Bft) 0 min
03.01.2013 09:01 20,8 C -1,5 C -0,6 C 99 % 8 % 1026 hPa 0,0 l/m 0,0 km/h (0 Bft) 0 min
03.01.2013 09:04 20,9 C -1,5 C -0,4 C 99 % 8 % 1026 hPa 0,0 l/m 0,0 km/h (0 Bft) 0 min
03.01.2013 09:07 20,9 C -1,4 C -0,4 C 99 % 8 % 1026 hPa 0,0 l/m 0,0 km/h (0 Bft) 0 min
03.01.2013 09:10 20,9 C -1,4 C -0,4 C 99 % 7 % 1026 hPa 0,0 l/m 0,0 km/h (0 Bft) 0 min
03.01.2013 09:13 21,0 C -1,3 C -0,4 C 99 % 7 % 1026 hPa 0,0 l/m 0,3 km/h (0 Bft) 0 min
03.01.2013 09:16 21,1 C -1,2 C -0,3 C 99 % 7 % 1026 hPa 0,0 l/m 2,0 km/h (1 Bft) 0 min
03.01.2013 09:19 21,1 C -1,2 C -0,3 C 99 % 8 % 1026 hPa 0,0 l/m 3,3 km/h (1 Bft) 0 min
03.01.2013 09:22 21,2 C -1,2 C -0,3 C 99 % 8 % 1026 hPa 0,0 l/m 1,7 km/h (1 Bft) 0 min
03.01.2013 09:25 21,2 C -1,2 C -0,2 C 99 % 9 % 1026 hPa 0,0 l/m 2,4 km/h (1 Bft) 0 min
03.01.2013 09:28 21,2 C -1,1 C -0,2 C 99 % 9 % 1026 hPa 0,0 l/m 1,0 km/h (0 Bft) 0 min
03.01.2013 09:31 21,3 C -1,1 C -0,2 C 99 % 10 % 1026 hPa 0,0 l/m 2,8 km/h (1 Bft) 0 min
03.01.2013 09:34 21,3 C -1,1 C 0,0 C 99 % 9 % 1026 hPa 0,0 l/m 1,5 km/h (1 Bft) 0 min
03.01.2013 09:37 21,3 C -1,0 C 0,0 C 99 % 11 % 1026 hPa 0,0 l/m 0,0 km/h (0 Bft) 0 min
03.01.2013 09:40 21,3 C -0,9 C -0,1 C 99 % 11 % 1027 hPa 0,0 l/m 0,2 km/h (0 Bft) 0 min
03.01.2013 09:43 21,4 C -0,8 C -0,1 C 99 % 11 % 1027 hPa 0,0 l/m 0,2 km/h (0 Bft) 0 min
03.01.2013 09:46 21,4 C -0,7 C -0,1 C 99 % 13 % 1027 hPa 0,0 l/m 5,5 km/h (1 Bft) 0 min
03.01.2013 09:49 21,4 C -0,7 C -0,1 C 99 % 12 % 1027 hPa 0,0 l/m 5,5 km/h (1 Bft) 0 min
03.01.2013 09:52 21,4 C -0,7 C 0,0 C 99 % 12 % 1027 hPa 0,0 l/m 3,0 km/h (1 Bft) 0 min
03.01.2013 09:55 21,4 C -0,7 C 0,0 C 99 % 13 % 1027 hPa 0,0 l/m 3,2 km/h (1 Bft) 0 min
03.01.2013 09:58 21,4 C -0,6 C 0,1 C 99 % 14 % 1027 hPa 0,0 l/m 1,0 km/h (0 Bft) 0 min
03.01.2013 10:01 21,4 C -0,6 C 0,1 C 99 % 14 % 1027 hPa 0,0 l/m 2,8 km/h (1 Bft) 0 min
03.01.2013 10:04 20,6 C -0,5 C 0,1 C 99 % 14 % 1027 hPa 0,0 l/m 5,7 km/h (1 Bft) 0 min
03.01.2013 10:07 19,1 C -0,5 C 0,1 C 99 % 8 % 1027 hPa 0,0 l/m 0,3 km/h (0 Bft) 0 min
03.01.2013 10:10 16,6 C -0,4 C 0,1 C 99 % 8 % 1027 hPa 0,0 l/m 0,0 km/h (0 Bft) 0 min
03.01.2013 10:13 16,1 C -0,4 C 0,2 C 99 % 12 % 1027 hPa 0,0 l/m 0,0 km/h (0 Bft) 0 min
03.01.2013 10:16 16,4 C -0,5 C 0,3 C 99 % 13 % 1027 hPa 0,0 l/m 0,0 km/h (0 Bft) 0 min
03.01.2013 10:19 17,1 C -0,5 C 0,2 C 99 % 10 % 1027 hPa 0,0 l/m 0,0 km/h (0 Bft) 0 min
03.01.2013 10:22 17,8 C -0,4 C 0,1 C 99 % 8 % 1027 hPa 0,0 l/m 0,0 km/h (0 Bft) 0 min
03.01.2013 10:25 18,5 C -0,4 C 0,1 C 99 % 7 % 1027 hPa 0,0 l/m 0,1 km/h (0 Bft) 0 min
03.01.2013 10:28 19,0 C -0,3 C 0,1 C 99 % 7 % 1027 hPa 0,0 l/m 0,5 km/h (0 Bft) 0 min
03.01.2013 10:31 19,4 C -0,3 C 0,1 C 99 % 7 % 1027 hPa 0,0 l/m 2,9 km/h (1 Bft) 0 min
03.01.2013 10:34 19,9 C -0,2 C 0,2 C 99 % 9 % 1027 hPa 0,0 l/m 0,9 km/h (0 Bft) 0 min
03.01.2013 10:37 20,1 C -0,2 C 0,3 C 99 % 10 % 1027 hPa 0,0 l/m 3,2 km/h (1 Bft) 0 min
03.01.2013 10:40 20,3 C -0,2 C 0,3 C 99 % 11 % 1027 hPa 0,0 l/m 4,1 km/h (1 Bft) 0 min
03.01.2013 10:43 20,4 C -0,1 C 0,3 C 99 % 11 % 1027 hPa 0,0 l/m 4,7 km/h (1 Bft) 0 min
03.01.2013 10:46 20,6 C -0,1 C 0,3 C 99 % 12 % 1027 hPa 0,0 l/m 1,0 km/h (0 Bft) 0 min
03.01.2013 10:49 20,6 C 0,0 C 0,3 C 99 % 13 % 1027 hPa 0,0 l/m 1,0 km/h (0 Bft) 0 min
03.01.2013 10:52 20,7 C 0,0 C 0,4 C 99 % 14 % 1027 hPa 0,0 l/m 0,7 km/h (0 Bft) 0 min
03.01.2013 10:55 20,7 C 0,1 C 0,4 C 99 % 14 % 1027 hPa 0,0 l/m 5,1 km/h (1 Bft) 0 min
03.01.2013 10:58 20,7 C 0,1 C 0,4 C 99 % 14 % 1027 hPa 0,0 l/m 3,1 km/h (1 Bft) 0 min
03.01.2013 11:01 20,8 C 0,1 C 0,4 C 99 % 14 % 1027 hPa 0,0 l/m 3,1 km/h (1 Bft) 0 min
03.01.2013 11:04 20,8 C 0,1 C 0,4 C 99 % 14 % 1027 hPa 0,0 l/m 0,9 km/h (0 Bft) 0 min
03.01.2013 11:07 20,9 C 0,2 C 0,4 C 99 % 16 % 1027 hPa 0,0 l/m 4,0 km/h (1 Bft) 0 min
03.01.2013 11:10 21,0 C 0,2 C 0,5 C 99 % 17 % 1027 hPa 0,0 l/m 3,7 km/h (1 Bft) 0 min
03.01.2013 11:13 21,0 C 0,3 C 0,5 C 99 % 17 % 1027 hPa 0,0 l/m 4,8 km/h (1 Bft) 0 min
03.01.2013 11:16 21,1 C 0,3 C 0,5 C 99 % 16 % 1027 hPa 0,0 l/m 4,6 km/h (1 Bft) 0 min
03.01.2013 11:19 21,1 C 0,4 C 0,6 C 99 % 14 % 1027 hPa 0,0 l/m 4,3 km/h (1 Bft) 0 min
03.01.2013 11:22 21,1 C 0,4 C 0,7 C 99 % 15 % 1027 hPa 0,0 l/m 2,1 km/h (1 Bft) 0 min
03.01.2013 11:25 21,1 C 0,5 C 0,8 C 99 % 17 % 1027 hPa 0,0 l/m 6,3 km/h (2 Bft) 0 min
03.01.2013 11:28 21,1 C 0,5 C 0,8 C 99 % 15 % 1027 hPa 0,0 l/m 9,7 km/h (2 Bft) 0 min
03.01.2013 11:31 21,0 C 0,6 C 0,9 C 99 % 16 % 1027 hPa 0,0 l/m 7,8 km/h (2 Bft) 0 min
03.01.2013 11:34 21,0 C 0,7 C 0,9 C 99 % 17 % 1027 hPa 0,0 l/m 6,3 km/h (2 Bft) 0 min
03.01.2013 11:37 21,0 C 0,7 C 1,1 C 99 % 21 % 1027 hPa 0,0 l/m 6,1 km/h (2 Bft) 0 min
03.01.2013 11:40 21,0 C 0,7 C 1,4 C 99 % 25 % 1027 hPa 0,0 l/m 7,5 km/h (2 Bft) 0 min
03.01.2013 11:43 21,0 C 0,8 C 1,1 C 99 % 25 % 1027 hPa 0,0 l/m 3,9 km/h (1 Bft) 0 min
03.01.2013 11:46 21,0 C 0,8 C 1,0 C 99 % 13 % 1027 hPa 0,0 l/m 5,7 km/h (1 Bft) 0 min
03.01.2013 11:49 21,0 C 0,8 C 1,2 C 99 % 14 % 1027 hPa 0,0 l/m 2,4 km/h (1 Bft) 0 min
03.01.2013 11:52 21,0 C 0,8 C 1,0 C 99 % 9 % 1027 hPa 0,0 l/m 8,7 km/h (2 Bft) 0 min
03.01.2013 11:55 21,1 C 0,9 C 1,0 C 98 % 8 % 1027 hPa 0,0 l/m 8,7 km/h (2 Bft) 0 min
03.01.2013 11:58 21,1 C 0,9 C 1,0 C 98 % 9 % 1027 hPa 0,0 l/m 6,2 km/h (2 Bft) 0 min
03.01.2013 12:01 21,1 C 0,9 C 1,1 C 98 % 9 % 1027 hPa 0,0 l/m 7,0 km/h (2 Bft) 0 min
03.01.2013 12:04 21,1 C 0,9 C 1,2 C 98 % 14 % 1027 hPa 0,0 l/m 7,8 km/h (2 Bft) 0 min
03.01.2013 12:07 21,1 C 0,9 C 1,1 C 98 % 14 % 1027 hPa 0,0 l/m 7,6 km/h (2 Bft) 0 min
03.01.2013 12:10 21,1 C 1,0 C 1,2 C 97 % 13 % 1027 hPa 0,0 l/m 7,6 km/h (2 Bft) 0 min
03.01.2013 12:13 21,1 C 1,0 C 1,2 C 97 % 13 % 1027 hPa 0,0 l/m 7,6 km/h (2 Bft) 0 min
03.01.2013 12:16 21,1 C 1,0 C 1,2 C 97 % 13 % 1027 hPa 0,0 l/m 6,8 km/h (2 Bft) 0 min
03.01.2013 12:19 21,1 C 1,0 C 1,3 C 96 % 14 % 1027 hPa 0,0 l/m 5,2 km/h (1 Bft) 0 min
03.01.2013 12:22 21,0 C 1,1 C 1,3 C 96 % 14 % 1027 hPa 0,0 l/m 5,3 km/h (1 Bft) 0 min
03.01.2013 12:25 21,0 C 1,1 C 1,3 C 96 % 14 % 1026 hPa 0,0 l/m 2,3 km/h (1 Bft) 0 min
03.01.2013 12:28 21,0 C 1,1 C 1,3 C 96 % 14 % 1026 hPa 0,0 l/m 4,2 km/h (1 Bft) 0 min
03.01.2013 12:31 21,2 C 1,1 C 1,3 C 96 % 13 % 1026 hPa 0,0 l/m 9,8 km/h (2 Bft) 0 min
03.01.2013 12:34 21,2 C 1,2 C 1,3 C 95 % 13 % 1026 hPa 0,0 l/m 9,2 km/h (2 Bft) 0 min
03.01.2013 12:37 21,3 C 1,2 C 1,4 C 95 % 13 % 1026 hPa 0,0 l/m 9,6 km/h (2 Bft) 0 min
03.01.2013 12:40 21,3 C 1,2 C 1,5 C 95 % 13 % 1026 hPa 0,0 l/m 5,8 km/h (2 Bft) 0 min
03.01.2013 12:43 21,2 C 1,3 C 1,6 C 94 % 16 % 1026 hPa 0,0 l/m 6,0 km/h (2 Bft) 0 min
03.01.2013 12:46 21,2 C 1,3 C 1,6 C 94 % 15 % 1026 hPa 0,0 l/m 6,0 km/h (2 Bft) 0 min
03.01.2013 12:49 21,2 C 1,4 C 1,6 C 94 % 14 % 1026 hPa 0,0 l/m 7,8 km/h (2 Bft) 0 min
03.01.2013 12:52 21,1 C 1,4 C 1,5 C 93 % 15 % 1026 hPa 0,0 l/m 10,3 km/h (2 Bft) 0 min
03.01.2013 12:55 21,2 C 1,4 C 1,6 C 93 % 16 % 1026 hPa 0,0 l/m 9,2 km/h (2 Bft) 0 min
03.01.2013 12:58 21,2 C 1,4 C 1,5 C 92 % 13 % 1026 hPa 0,0 l/m 9,2 km/h (2 Bft) 0 min
03.01.2013 13:01 21,2 C 1,4 C 1,4 C 92 % 10 % 1026 hPa 0,0 l/m 9,2 km/h (2 Bft) 0 min
03.01.2013 13:04 21,4 C 1,4 C 1,2 C 91 % 10 % 1026 hPa 0,0 l/m 14,5 km/h (3 Bft) 0 min
03.01.2013 13:07 21,5 C 1,4 C 0,9 C 91 % 9 % 1026 hPa 0,0 l/m 14,8 km/h (3 Bft) 0 min
03.01.2013 13:10 21,6 C 1,4 C 0,8 C 91 % 9 % 1026 hPa 0,0 l/m 14,2 km/h (3 Bft) 0 min
03.01.2013 13:13 21,6 C 1,4 C 0,6 C 91 % 10 % 1026 hPa 0,0 l/m 14,6 km/h (3 Bft) 0 min
03.01.2013 13:16 21,8 C 1,3 C 0,6 C 91 % 10 % 1026 hPa 0,0 l/m 14,4 km/h (3 Bft) 0 min
03.01.2013 13:19 21,8 C 1,3 C 0,8 C 91 % 11 % 1026 hPa 0,3 l/m 13,1 km/h (3 Bft) 0 min
03.01.2013 13:22 21,8 C 1,2 C 0,7 C 91 % 11 % 1026 hPa 0,0 l/m 11,3 km/h (2 Bft) 0 min
03.01.2013 13:25 21,8 C 1,2 C 0,7 C 92 % 11 % 1026 hPa 0,0 l/m 13,2 km/h (3 Bft) 0 min
03.01.2013 13:28 21,8 C 1,2 C 0,9 C 92 % 12 % 1026 hPa 0,0 l/m 11,1 km/h (2 Bft) 0 min
03.01.2013 13:31 21,8 C 1,2 C 1,0 C 92 % 13 % 1026 hPa 0,0 l/m 6,9 km/h (2 Bft) 0 min
03.01.2013 13:34 21,8 C 1,2 C 1,0 C 93 % 13 % 1026 hPa 0,0 l/m 7,5 km/h (2 Bft) 0 min
03.01.2013 13:37 21,8 C 1,2 C 1,0 C 93 % 13 % 1026 hPa 0,0 l/m 7,5 km/h (2 Bft) 0 min
03.01.2013 13:40 21,8 C 1,2 C 1,0 C 94 % 12 % 1026 hPa 0,0 l/m 6,5 km/h (2 Bft) 0 min
03.01.2013 13:43 21,4 C 1,2 C 1,1 C 94 % 13 % 1026 hPa 0,0 l/m 6,6 km/h (2 Bft) 0 min
03.01.2013 13:46 19,9 C 1,2 C 1,1 C 95 % 13 % 1026 hPa 0,0 l/m 9,0 km/h (2 Bft) 0 min
03.01.2013 13:49 18,6 C 1,2 C 1,1 C 95 % 14 % 1026 hPa 0,0 l/m 10,6 km/h (2 Bft) 0 min
03.01.2013 13:52 17,6 C 1,2 C 1,1 C 95 % 13 % 1026 hPa 0,0 l/m 10,0 km/h (2 Bft) 0 min
03.01.2013 13:55 17,6 C 1,2 C 1,1 C 96 % 12 % 1026 hPa 0,0 l/m 12,1 km/h (2 Bft) 0 min
03.01.2013 13:58 17,6 C 1,2 C 1,1 C 96 % 12 % 1026 hPa 0,0 l/m 12,8 km/h (3 Bft) 0 min
03.01.2013 14:01 16,6 C 1,2 C 1,1 C 96 % 11 % 1026 hPa 0,0 l/m 11,0 km/h (2 Bft) 0 min
03.01.2013 14:04 18,0 C 1,2 C 1,0 C 96 % 9 % 1026 hPa 0,0 l/m 8,5 km/h (2 Bft) 0 min
03.01.2013 14:07 18,5 C 1,1 C 1,0 C 97 % 7 % 1026 hPa 0,0 l/m 6,9 km/h (2 Bft) 0 min
03.01.2013 14:10 19,1 C 1,1 C 1,0 C 97 % 8 % 1026 hPa 0,0 l/m 13,3 km/h (3 Bft) 0 min
03.01.2013 14:13 19,4 C 1,1 C 1,0 C 97 % 8 % 1026 hPa 0,0 l/m 11,3 km/h (2 Bft) 0 min
03.01.2013 14:16 19,6 C 1,1 C 1,0 C 97 % 9 % 1026 hPa 0,0 l/m 10,8 km/h (2 Bft) 0 min
03.01.2013 14:19 19,9 C 1,1 C 1,0 C 97 % 8 % 1026 hPa 0,0 l/m 10,7 km/h (2 Bft) 0 min
03.01.2013 14:22 20,0 C 1,1 C 1,0 C 98 % 7 % 1026 hPa 0,0 l/m 9,3 km/h (2 Bft) 0 min
03.01.2013 14:25 20,1 C 1,1 C 1,0 C 98 % 7 % 1026 hPa 0,3 l/m 7,4 km/h (2 Bft) 0 min
03.01.2013 14:28 20,2 C 1,1 C 1,0 C 98 % 5 % 1026 hPa 0,0 l/m 5,2 km/h (1 Bft) 0 min
03.01.2013 14:31 20,5 C 1,1 C 0,9 C 98 % 5 % 1026 hPa 0,0 l/m 1,3 km/h (1 Bft) 0 min
03.01.2013 14:34 20,5 C 1,1 C 0,9 C 98 % 4 % 1026 hPa 0,0 l/m 1,3 km/h (1 Bft) 0 min
03.01.2013 14:37 20,6 C 1,0 C 0,9 C 98 % 3 % 1026 hPa 0,0 l/m 1,3 km/h (1 Bft) 0 min
03.01.2013 14:40 20,6 C 1,0 C 1,0 C 99 % 4 % 1026 hPa 0,0 l/m 0,4 km/h (0 Bft) 0 min
03.01.2013 14:43 20,6 C 1,0 C 1,0 C 99 % 4 % 1026 hPa 0,0 l/m 0,4 km/h (0 Bft) 0 min
03.01.2013 14:46 20,7 C 1,0 C 1,0 C 99 % 4 % 1026 hPa 0,0 l/m 2,1 km/h (1 Bft) 0 min
03.01.2013 14:49 20,7 C 1,0 C 1,0 C 99 % 4 % 1026 hPa 0,0 l/m 0,4 km/h (0 Bft) 0 min
03.01.2013 14:52 20,7 C 1,0 C 1,0 C 99 % 5 % 1026 hPa 0,0 l/m 3,9 km/h (1 Bft) 0 min
03.01.2013 14:55 20,8 C 1,0 C 1,0 C 99 % 5 % 1026 hPa 0,0 l/m 2,5 km/h (1 Bft) 0 min
03.01.2013 14:58 20,8 C 1,0 C 1,0 C 99 % 5 % 1026 hPa 0,0 l/m 3,2 km/h (1 Bft) 0 min
03.01.2013 15:01 20,8 C 1,0 C 1,0 C 99 % 3 % 1026 hPa 0,0 l/m 1,2 km/h (1 Bft) 0 min
03.01.2013 15:04 20,8 C 1,0 C 1,0 C 99 % 3 % 1027 hPa 0,0 l/m 4,8 km/h (1 Bft) 0 min
03.01.2013 15:07 20,8 C 1,0 C 1,0 C 99 % 3 % 1027 hPa 0,0 l/m 5,2 km/h (1 Bft) 0 min
03.01.2013 15:10 20,8 C 1,0 C 1,0 C 99 % 3 % 1027 hPa 0,0 l/m 1,9 km/h (1 Bft) 0 min
03.01.2013 15:13 20,8 C 1,0 C 1,0 C 99 % 3 % 1027 hPa 0,0 l/m 0,9 km/h (0 Bft) 0 min
03.01.2013 15:16 20,8 C 1,0 C 1,0 C 99 % 3 % 1027 hPa 0,0 l/m 2,3 km/h (1 Bft) 0 min
03.01.2013 15:19 20,8 C 1,0 C 0,9 C 99 % 3 % 1027 hPa 0,0 l/m 4,6 km/h (1 Bft) 0 min
03.01.2013 15:22 20,9 C 1,0 C 0,9 C 99 % 3 % 1027 hPa 0,0 l/m 1,2 km/h (1 Bft) 0 min
03.01.2013 15:25 20,9 C 1,0 C 1,0 C 99 % 3 % 1027 hPa 0,0 l/m 3,8 km/h (1 Bft) 0 min
03.01.2013 15:28 20,9 C 1,0 C 1,0 C 99 % 3 % 1027 hPa 0,0 l/m 2,6 km/h (1 Bft) 0 min
03.01.2013 15:31 20,9 C 1,0 C 1,0 C 99 % 3 % 1027 hPa 0,0 l/m 5,7 km/h (1 Bft) 0 min
03.01.2013 15:34 20,9 C 1,0 C 1,0 C 99 % 3 % 1027 hPa 0,0 l/m 5,0 km/h (1 Bft) 0 min
03.01.2013 15:37 20,9 C 1,0 C 1,0 C 99 % 2 % 1027 hPa 0,0 l/m 7,9 km/h (2 Bft) 0 min
03.01.2013 15:40 20,9 C 1,0 C 1,0 C 99 % 1 % 1027 hPa 0,0 l/m 8,5 km/h (2 Bft) 0 min
03.01.2013 15:43 20,9 C 1,0 C 1,0 C 99 % 1 % 1027 hPa 0,0 l/m 6,6 km/h (2 Bft) 0 min
03.01.2013 15:46 20,9 C 1,0 C 1,0 C 99 % 1 % 1027 hPa 0,0 l/m 7,3 km/h (2 Bft) 0 min
03.01.2013 15:49 20,9 C 1,0 C 1,0 C 99 % 1 % 1027 hPa 0,0 l/m 5,6 km/h (1 Bft) 0 min
03.01.2013 15:52 20,9 C 1,0 C 1,0 C 99 % 1 % 1027 hPa 0,0 l/m 5,8 km/h (2 Bft) 0 min
03.01.2013 15:55 20,9 C 1,0 C 1,0 C 99 % 1 % 1027 hPa 0,0 l/m 3,1 km/h (1 Bft) 0 min
03.01.2013 15:58 20,9 C 1,0 C 1,0 C 99 % 1 % 1027 hPa 0,0 l/m 4,5 km/h (1 Bft) 0 min
03.01.2013 16:01 21,0 C 1,0 C 1,0 C 99 % 1 % 1027 hPa 0,0 l/m 2,2 km/h (1 Bft) 0 min
03.01.2013 16:04 21,0 C 1,0 C 1,0 C 99 % 1 % 1027 hPa 0,0 l/m 5,2 km/h (1 Bft) 0 min
03.01.2013 16:07 21,0 C 1,0 C 1,0 C 99 % 1 % 1027 hPa 0,0 l/m 5,9 km/h (2 Bft) 0 min
03.01.2013 16:10 21,0 C 1,0 C 1,0 C 99 % 1 % 1027 hPa 0,0 l/m 5,2 km/h (1 Bft) 0 min
03.01.2013 16:13 21,0 C 1,0 C 1,0 C 99 % 0 % 1027 hPa 0,0 l/m 3,2 km/h (1 Bft) 0 min
03.01.2013 16:16 21,0 C 1,0 C 0,9 C 99 % 0 % 1027 hPa 0,0 l/m 2,5 km/h (1 Bft) 0 min
03.01.2013 16:19 21,0 C 1,0 C 1,0 C 99 % 0 % 1027 hPa 0,0 l/m 3,4 km/h (1 Bft) 0 min
03.01.2013 16:22 21,0 C 1,0 C 0,9 C 99 % 0 % 1027 hPa 0,0 l/m 2,7 km/h (1 Bft) 0 min
03.01.2013 16:25 21,0 C 1,0 C 1,0 C 99 % 0 % 1027 hPa 0,0 l/m 1,0 km/h (0 Bft) 0 min
03.01.2013 16:28 21,1 C 1,0 C 1,0 C 99 % 0 % 1027 hPa 0,0 l/m 0,8 km/h (0 Bft) 0 min
03.01.2013 16:31 21,1 C 1,0 C 1,0 C 99 % 0 % 1027 hPa 0,0 l/m 2,8 km/h (1 Bft) 0 min
03.01.2013 16:34 21,1 C 1,0 C 1,0 C 99 % 0 % 1027 hPa 0,0 l/m 1,9 km/h (1 Bft) 0 min
03.01.2013 16:37 21,0 C 1,0 C 1,0 C 99 % 0 % 1027 hPa 0,0 l/m 0,3 km/h (0 Bft) 0 min
03.01.2013 16:40 21,1 C 1,0 C 1,0 C 99 % 0 % 1027 hPa 0,3 l/m 0,9 km/h (0 Bft) 0 min
03.01.2013 16:43 21,1 C 1,0 C 1,0 C 99 % 0 % 1027 hPa 0,3 l/m 0,9 km/h (0 Bft) 0 min
03.01.2013 16:46 21,0 C 1,0 C 1,0 C 99 % 0 % 1027 hPa 0,0 l/m 2,2 km/h (1 Bft) 0 min
03.01.2013 16:49 21,0 C 1,0 C 1,0 C 99 % 0 % 1027 hPa 0,0 l/m 2,8 km/h (1 Bft) 0 min
03.01.2013 16:52 21,1 C 1,0 C 1,0 C 99 % 0 % 1027 hPa 0,3 l/m 2,8 km/h (1 Bft) 0 min
03.01.2013 16:55 21,1 C 1,0 C 1,0 C 99 % 0 % 1027 hPa 0,0 l/m 0,4 km/h (0 Bft) 0 min
03.01.2013 16:58 21,1 C 1,0 C 1,0 C 99 % 0 % 1027 hPa 0,0 l/m 2,7 km/h (1 Bft) 0 min
03.01.2013 17:01 21,1 C 1,0 C 1,0 C 99 % 0 % 1027 hPa 0,0 l/m 4,2 km/h (1 Bft) 0 min
03.01.2013 17:04 21,1 C 1,0 C 1,0 C 99 % 0 % 1027 hPa 0,0 l/m 3,7 km/h (1 Bft) 0 min
03.01.2013 17:07 21,1 C 1,0 C 1,0 C 99 % 0 % 1027 hPa 0,0 l/m 2,0 km/h (1 Bft) 0 min
03.01.2013 17:10 21,1 C 1,0 C 1,0 C 99 % 0 % 1027 hPa 0,0 l/m 0,9 km/h (0 Bft) 0 min
03.01.2013 17:13 21,1 C 1,0 C 1,1 C 99 % 0 % 1027 hPa 0,0 l/m 0,3 km/h (0 Bft) 0 min
03.01.2013 17:16 21,2 C 1,0 C 1,1 C 99 % 0 % 1027 hPa 0,0 l/m 0,9 km/h (0 Bft) 0 min
03.01.2013 17:19 21,2 C 1,0 C 1,1 C 99 % 0 % 1027 hPa 0,0 l/m 3,3 km/h (1 Bft) 0 min
03.01.2013 17:22 21,2 C 1,0 C 1,1 C 99 % 0 % 1027 hPa 0,0 l/m 0,4 km/h (0 Bft) 0 min
03.01.2013 17:25 21,2 C 1,0 C 1,1 C 99 % 0 % 1027 hPa 0,0 l/m 0,2 km/h (0 Bft) 0 min
03.01.2013 17:28 21,2 C 1,0 C 1,1 C 99 % 0 % 1027 hPa 0,0 l/m 2,1 km/h (1 Bft) 0 min
03.01.2013 17:31 21,2 C 1,0 C 1,1 C 99 % 0 % 1027 hPa 0,3 l/m 0,0 km/h (0 Bft) 0 min
03.01.2013 17:34 21,2 C 1,0 C 1,1 C 99 % 0 % 1027 hPa 0,0 l/m 0,1 km/h (0 Bft) 0 min
03.01.2013 17:37 21,3 C 1,0 C 1,2 C 99 % 0 % 1027 hPa 0,0 l/m 0,3 km/h (0 Bft) 0 min
03.01.2013 17:40 21,3 C 1,0 C 1,2 C 99 % 0 % 1027 hPa 0,3 l/m 0,5 km/h (0 Bft) 0 min
03.01.2013 17:43 21,3 C 1,0 C 1,1 C 99 % 0 % 1027 hPa 0,0 l/m 2,8 km/h (1 Bft) 0 min
03.01.2013 17:46 21,3 C 1,0 C 1,1 C 99 % 0 % 1027 hPa 0,0 l/m 2,8 km/h (1 Bft) 0 min
03.01.2013 17:49 21,3 C 1,0 C 1,2 C 99 % 0 % 1027 hPa 0,3 l/m 0,0 km/h (0 Bft) 0 min
03.01.2013 17:52 21,4 C 1,0 C 1,2 C 99 % 0 % 1027 hPa 0,0 l/m 0,0 km/h (0 Bft) 0 min
03.01.2013 17:55 21,4 C 1,0 C 1,1 C 99 % 0 % 1027 hPa 0,0 l/m 0,3 km/h (0 Bft) 0 min
03.01.2013 17:58 21,5 C 1,0 C 1,1 C 99 % 0 % 1027 hPa 0,0 l/m 0,6 km/h (0 Bft) 0 min
03.01.2013 18:01 21,4 C 1,0 C 1,2 C 99 % 0 % 1027 hPa 0,0 l/m 0,2 km/h (0 Bft) 0 min
03.01.2013 18:04 21,4 C 1,1 C 1,3 C 99 % 0 % 1027 hPa 0,0 l/m 1,2 km/h (1 Bft) 0 min
03.01.2013 18:07 21,4 C 1,1 C 1,2 C 99 % 0 % 1027 hPa 0,0 l/m 2,2 km/h (1 Bft) 0 min
03.01.2013 18:10 21,4 C 1,0 C 1,0 C 99 % 0 % 1027 hPa 0,0 l/m 2,2 km/h (1 Bft) 0 min
03.01.2013 18:13 21,4 C 1,0 C 1,1 C 99 % 0 % 1027 hPa 0,0 l/m 0,7 km/h (0 Bft) 0 min
03.01.2013 18:16 21,4 C 1,0 C 1,1 C 99 % 0 % 1027 hPa 0,0 l/m 0,3 km/h (0 Bft) 0 min
03.01.2013 18:19 21,4 C 1,0 C 1,2 C 99 % 0 % 1027 hPa 0,0 l/m 0,3 km/h (0 Bft) 0 min
03.01.2013 18:22 21,4 C 1,1 C 1,4 C 99 % 0 % 1027 hPa 0,0 l/m 0,0 km/h (0 Bft) 0 min
03.01.2013 18:25 21,5 C 1,1 C 1,2 C 99 % 0 % 1027 hPa 0,0 l/m 0,0 km/h (0 Bft) 0 min
03.01.2013 18:28 21,5 C 1,1 C 1,1 C 99 % 0 % 1027 hPa 0,0 l/m 0,0 km/h (0 Bft) 0 min
03.01.2013 18:31 21,4 C 1,1 C 1,1 C 99 % 0 % 1027 hPa 0,0 l/m 0,0 km/h (0 Bft) 0 min
03.01.2013 18:34 21,4 C 1,1 C 1,2 C 99 % 0 % 1027 hPa 0,0 l/m 0,0 km/h (0 Bft) 0 min
03.01.2013 18:37 21,4 C 1,1 C 1,2 C 99 % 0 % 1027 hPa 0,0 l/m 0,0 km/h (0 Bft) 0 min
03.01.2013 18:40 21,4 C 1,0 C 1,1 C 99 % 0 % 1027 hPa 0,0 l/m 0,0 km/h (0 Bft) 0 min
03.01.2013 18:43 21,5 C 1,0 C 1,0 C 99 % 0 % 1027 hPa 0,0 l/m 0,0 km/h (0 Bft) 0 min
03.01.2013 18:46 21,6 C 1,0 C 1,1 C 99 % 0 % 1027 hPa 0,0 l/m 0,0 km/h (0 Bft) 0 min
03.01.2013 18:49 21,6 C 1,0 C 1,1 C 99 % 0 % 1027 hPa 0,0 l/m 0,0 km/h (0 Bft) 0 min
03.01.2013 18:52 21,6 C 1,0 C 1,0 C 99 % 0 % 1027 hPa 0,0 l/m 0,0 km/h (0 Bft) 0 min
03.01.2013 18:55 21,6 C 1,0 C 1,0 C 99 % 0 % 1027 hPa 0,0 l/m 0,0 km/h (0 Bft) 0 min
03.01.2013 18:58 21,6 C 1,0 C 1,0 C 99 % 0 % 1027 hPa 0,0 l/m 0,0 km/h (0 Bft) 0 min
03.01.2013 19:01 21,7 C 1,0 C 1,0 C 99 % 0 % 1027 hPa 0,3 l/m 0,0 km/h (0 Bft) 0 min
03.01.2013 19:04 21,7 C 1,0 C 1,0 C 99 % 0 % 1027 hPa 0,0 l/m 0,0 km/h (0 Bft) 0 min
03.01.2013 19:07 21,7 C 1,0 C 1,2 C 99 % 0 % 1027 hPa 0,3 l/m 0,0 km/h (0 Bft) 0 min
03.01.2013 19:10 21,7 C 1,0 C 1,4 C 99 % 0 % 1027 hPa 0,0 l/m 0,0 km/h (0 Bft) 0 min
03.01.2013 19:13 21,7 C 1,1 C 1,4 C 99 % 0 % 1027 hPa 0,0 l/m 0,0 km/h (0 Bft) 0 min
03.01.2013 19:16 21,7 C 1,2 C 1,4 C 99 % 0 % 1027 hPa 0,0 l/m 0,2 km/h (0 Bft) 0 min
03.01.2013 19:19 21,7 C 1,2 C 1,4 C 99 % 0 % 1027 hPa 0,0 l/m 0,1 km/h (0 Bft) 0 min
03.01.2013 19:22 21,7 C 1,2 C 1,4 C 99 % 0 % 1027 hPa 0,0 l/m 0,0 km/h (0 Bft) 0 min
03.01.2013 19:25 21,7 C 1,2 C 1,5 C 99 % 0 % 1027 hPa 0,0 l/m 0,0 km/h (0 Bft) 0 min
03.01.2013 19:28 21,7 C 1,2 C 1,5 C 99 % 0 % 1027 hPa 0,0 l/m 0,0 km/h (0 Bft) 0 min
03.01.2013 19:31 21,7 C 1,3 C 1,7 C 99 % 0 % 1027 hPa 0,0 l/m 0,0 km/h (0 Bft) 0 min
03.01.2013 19:34 21,7 C 1,3 C 1,5 C 99 % 0 % 1027 hPa 0,0 l/m 0,2 km/h (0 Bft) 0 min
03.01.2013 19:37 21,7 C 1,3 C 1,6 C 99 % 0 % 1027 hPa 0,0 l/m 0,3 km/h (0 Bft) 0 min
03.01.2013 19:40 21,7 C 1,3 C 1,4 C 99 % 0 % 1027 hPa 0,0 l/m 0,3 km/h (0 Bft) 0 min
03.01.2013 19:43 21,8 C 1,3 C 1,4 C 99 % 0 % 1027 hPa 0,0 l/m 0,6 km/h (0 Bft) 0 min
03.01.2013 19:46 21,8 C 1,2 C 1,4 C 99 % 0 % 1027 hPa 0,0 l/m 3,0 km/h (1 Bft) 0 min
03.01.2013 19:49 21,8 C 1,2 C 1,3 C 99 % 0 % 1027 hPa 0,0 l/m 0,0 km/h (0 Bft) 0 min
03.01.2013 19:52 21,8 C 1,2 C 1,3 C 99 % 0 % 1027 hPa 0,0 l/m 0,0 km/h (0 Bft) 0 min
03.01.2013 19:55 21,8 C 1,2 C 1,2 C 99 % 0 % 1027 hPa 0,0 l/m 0,4 km/h (0 Bft) 0 min
03.01.2013 19:58 21,8 C 1,2 C 1,2 C 99 % 0 % 1027 hPa 0,0 l/m 0,1 km/h (0 Bft) 0 min
03.01.2013 20:01 21,8 C 1,2 C 1,2 C 99 % 0 % 1027 hPa 0,0 l/m 0,0 km/h (0 Bft) 0 min
03.01.2013 20:04 21,8 C 1,2 C 1,2 C 99 % 0 % 1027 hPa 0,0 l/m 0,0 km/h (0 Bft) 0 min
03.01.2013 20:07 21,8 C 1,2 C 1,4 C 99 % 0 % 1027 hPa 0,0 l/m 0,0 km/h (0 Bft) 0 min
03.01.2013 20:10 21,8 C 1,2 C 1,5 C 99 % 0 % 1027 hPa 0,0 l/m 0,0 km/h (0 Bft) 0 min
03.01.2013 20:13 21,8 C 1,2 C 1,4 C 99 % 0 % 1027 hPa 0,0 l/m 0,0 km/h (0 Bft) 0 min
03.01.2013 20:16 21,8 C 1,2 C 1,4 C 99 % 0 % 1027 hPa 0,0 l/m 0,0 km/h (0 Bft) 0 min
03.01.2013 20:19 21,8 C 1,2 C 1,4 C 99 % 0 % 1027 hPa 0,0 l/m 0,2 km/h (0 Bft) 0 min
03.01.2013 20:22 21,8 C 1,2 C 1,4 C 99 % 0 % 1027 hPa 0,0 l/m 0,1 km/h (0 Bft) 0 min
03.01.2013 20:25 21,8 C 1,2 C 1,4 C 99 % 0 % 1027 hPa 0,0 l/m 0,4 km/h (0 Bft) 0 min
03.01.2013 20:28 21,8 C 1,2 C 1,5 C 99 % 0 % 1027 hPa 0,0 l/m 0,0 km/h (0 Bft) 0 min
03.01.2013 20:31 21,8 C 1,2 C 1,4 C 99 % 0 % 1027 hPa 0,0 l/m 0,0 km/h (0 Bft) 0 min
03.01.2013 20:34 21,8 C 1,2 C 1,3 C 99 % 0 % 1027 hPa 0,0 l/m 0,3 km/h (0 Bft) 0 min
03.01.2013 20:37 21,8 C 1,1 C 1,2 C 99 % 0 % 1027 hPa 0,0 l/m 0,3 km/h (0 Bft) 0 min
03.01.2013 20:40 21,8 C 1,0 C 1,1 C 99 % 0 % 1027 hPa 0,0 l/m 0,0 km/h (0 Bft) 0 min
03.01.2013 20:43 21,8 C 1,0 C 1,1 C 99 % 0 % 1027 hPa 0,0 l/m 0,0 km/h (0 Bft) 0 min
03.01.2013 20:46 21,8 C 1,0 C 1,1 C 99 % 0 % 1027 hPa 0,0 l/m 0,1 km/h (0 Bft) 0 min
03.01.2013 20:49 21,8 C 1,0 C 1,1 C 99 % 0 % 1027 hPa 0,0 l/m 0,0 km/h (0 Bft) 0 min
03.01.2013 20:52 21,8 C 1,0 C 1,1 C 99 % 0 % 1027 hPa 0,0 l/m 0,0 km/h (0 Bft) 0 min
03.01.2013 20:55 21,8 C 1,0 C 1,1 C 99 % 0 % 1027 hPa 0,0 l/m 0,0 km/h (0 Bft) 0 min
03.01.2013 20:58 21,9 C 1,0 C 1,1 C 99 % 0 % 1027 hPa 0,0 l/m 0,0 km/h (0 Bft) 0 min
03.01.2013 21:01 21,8 C 1,0 C 1,1 C 99 % 0 % 1026 hPa 0,3 l/m 0,0 km/h (0 Bft) 0 min
03.01.2013 21:04 21,9 C 1,0 C 1,2 C 99 % 0 % 1027 hPa 0,0 l/m 0,0 km/h (0 Bft) 0 min
03.01.2013 21:07 21,9 C 1,0 C 1,2 C 99 % 0 % 1027 hPa 0,0 l/m 0,4 km/h (0 Bft) 0 min
03.01.2013 21:10 21,8 C 1,2 C 1,5 C 99 % 0 % 1027 hPa 0,0 l/m 2,8 km/h (1 Bft) 0 min
03.01.2013 21:13 21,8 C 1,2 C 1,8 C 99 % 0 % 1027 hPa 0,0 l/m 3,6 km/h (1 Bft) 0 min
03.01.2013 21:16 21,8 C 1,4 C 1,9 C 99 % 0 % 1027 hPa 0,0 l/m 3,2 km/h (1 Bft) 0 min
03.01.2013 21:19 21,8 C 1,5 C 1,9 C 99 % 0 % 1027 hPa 0,0 l/m 2,3 km/h (1 Bft) 0 min
03.01.2013 21:22 21,8 C 1,6 C 1,9 C 99 % 0 % 1027 hPa 0,0 l/m 0,0 km/h (0 Bft) 0 min
03.01.2013 21:25 21,9 C 1,6 C 2,1 C 99 % 0 % 1027 hPa 0,0 l/m 0,9 km/h (0 Bft) 0 min
03.01.2013 21:28 21,9 C 1,7 C 2,3 C 99 % 0 % 1027 hPa 0,0 l/m 3,5 km/h (1 Bft) 0 min
03.01.2013 21:31 21,9 C 1,7 C 2,2 C 99 % 0 % 1027 hPa 0,0 l/m 2,5 km/h (1 Bft) 0 min
03.01.2013 21:34 21,9 C 1,8 C 2,5 C 99 % 0 % 1027 hPa 0,0 l/m 6,6 km/h (2 Bft) 0 min
03.01.2013 21:37 21,9 C 1,8 C 2,2 C 99 % 0 % 1027 hPa 0,0 l/m 6,6 km/h (2 Bft) 0 min
03.01.2013 21:40 21,9 C 1,9 C 2,3 C 99 % 0 % 1027 hPa 0,0 l/m 0,1 km/h (0 Bft) 0 min
03.01.2013 21:43 21,8 C 1,9 C 2,0 C 99 % 0 % 1027 hPa 0,0 l/m 0,0 km/h (0 Bft) 0 min
03.01.2013 21:46 21,8 C 1,9 C 2,1 C 99 % 0 % 1027 hPa 0,0 l/m 0,0 km/h (0 Bft) 0 min
03.01.2013 21:49 21,8 C 1,9 C 2,0 C 99 % 0 % 1027 hPa 0,0 l/m 0,0 km/h (0 Bft) 0 min
03.01.2013 21:52 21,8 C 1,9 C 2,3 C 99 % 0 % 1027 hPa 0,0 l/m 0,1 km/h (0 Bft) 0 min
03.01.2013 21:55 21,8 C 1,9 C 2,3 C 99 % 0 % 1027 hPa 0,0 l/m 2,2 km/h (1 Bft) 0 min
03.01.2013 21:58 21,8 C 1,9 C 2,4 C 99 % 0 % 1027 hPa 0,0 l/m 3,0 km/h (1 Bft) 0 min
03.01.2013 22:01 21,8 C 2,0 C 2,4 C 99 % 0 % 1027 hPa 0,0 l/m 1,3 km/h (1 Bft) 0 min
03.01.2013 22:04 21,8 C 2,0 C 2,3 C 99 % 0 % 1027 hPa 0,0 l/m 1,9 km/h (1 Bft) 0 min
03.01.2013 22:07 21,8 C 2,0 C 2,2 C 99 % 0 % 1027 hPa 0,3 l/m 0,9 km/h (0 Bft) 0 min
03.01.2013 22:10 21,8 C 2,1 C 2,3 C 99 % 0 % 1027 hPa 0,0 l/m 0,1 km/h (0 Bft) 0 min
03.01.2013 22:13 21,8 C 2,1 C 2,2 C 99 % 0 % 1027 hPa 0,0 l/m 0,0 km/h (0 Bft) 0 min
03.01.2013 22:16 21,8 C 2,1 C 2,3 C 99 % 0 % 1027 hPa 0,0 l/m 2,5 km/h (1 Bft) 0 min
03.01.2013 22:19 21,8 C 2,1 C 2,2 C 99 % 0 % 1027 hPa 0,0 l/m 0,3 km/h (0 Bft) 0 min
03.01.2013 22:22 21,7 C 2,0 C 2,2 C 99 % 0 % 1027 hPa 0,0 l/m 0,1 km/h (0 Bft) 0 min
03.01.2013 22:25 21,7 C 2,0 C 2,2 C 99 % 0 % 1027 hPa 0,0 l/m 3,3 km/h (1 Bft) 0 min
03.01.2013 22:28 21,7 C 2,0 C 2,1 C 99 % 0 % 1027 hPa 0,0 l/m 4,5 km/h (1 Bft) 0 min
03.01.2013 22:31 21,7 C 2,0 C 2,1 C 99 % 0 % 1027 hPa 0,0 l/m 2,6 km/h (1 Bft) 0 min
03.01.2013 22:34 21,7 C 2,0 C 2,0 C 99 % 0 % 1027 hPa 0,0 l/m 4,1 km/h (1 Bft) 0 min
03.01.2013 22:37 21,7 C 2,0 C 1,9 C 99 % 0 % 1027 hPa 0,0 l/m 4,3 km/h (1 Bft) 0 min
03.01.2013 22:40 21,7 C 2,1 C 2,0 C 99 % 0 % 1027 hPa 0,0 l/m 3,9 km/h (1 Bft) 0 min
03.01.2013 22:43 21,6 C 2,1 C 2,4 C 99 % 0 % 1027 hPa 0,0 l/m 1,9 km/h (1 Bft) 0 min
03.01.2013 22:46 21,6 C 2,2 C 2,4 C 99 % 0 % 1027 hPa 0,0 l/m 4,5 km/h (1 Bft) 0 min
03.01.2013 22:49 21,6 C 2,2 C 2,4 C 99 % 0 % 1027 hPa 0,0 l/m 1,2 km/h (1 Bft) 0 min
03.01.2013 22:52 21,6 C 2,3 C 2,3 C 99 % 0 % 1027 hPa 0,0 l/m 0,0 km/h (0 Bft) 0 min
03.01.2013 22:55 21,6 C 2,3 C 2,2 C 99 % 0 % 1027 hPa 0,3 l/m 0,0 km/h (0 Bft) 0 min
03.01.2013 22:58 21,6 C 2,3 C 2,2 C 99 % 0 % 1027 hPa 0,0 l/m 0,0 km/h (0 Bft) 0 min
03.01.2013 23:01 21,6 C 2,3 C 2,4 C 99 % 0 % 1027 hPa 0,0 l/m 0,0 km/h (0 Bft) 0 min
03.01.2013 23:04 21,6 C 2,2 C 2,3 C 99 % 0 % 1027 hPa 0,0 l/m 0,0 km/h (0 Bft) 0 min
03.01.2013 23:07 21,6 C 2,2 C 2,2 C 99 % 0 % 1027 hPa 0,0 l/m 0,0 km/h (0 Bft) 0 min
03.01.2013 23:10 21,6 C 2,1 C 2,1 C 99 % 0 % 1027 hPa 0,0 l/m 0,0 km/h (0 Bft) 0 min
03.01.2013 23:13 21,6 C 2,1 C 2,1 C 99 % 0 % 1027 hPa 0,0 l/m 0,0 km/h (0 Bft) 0 min
03.01.2013 23:16 21,6 C 2,1 C 1,9 C 99 % 0 % 1027 hPa 0,0 l/m 0,0 km/h (0 Bft) 0 min
03.01.2013 23:19 21,6 C 2,1 C 1,9 C 99 % 0 % 1027 hPa 0,0 l/m 0,0 km/h (0 Bft) 0 min
03.01.2013 23:22 21,6 C 2,1 C 1,9 C 99 % 0 % 1027 hPa 0,0 l/m 0,0 km/h (0 Bft) 0 min
03.01.2013 23:25 21,6 C 2,1 C 2,0 C 99 % 0 % 1027 hPa 0,0 l/m 0,0 km/h (0 Bft) 0 min
03.01.2013 23:28 21,6 C 2,1 C 2,2 C 99 % 0 % 1027 hPa 0,0 l/m 0,0 km/h (0 Bft) 0 min
03.01.2013 23:31 21,6 C 2,1 C 2,1 C 99 % 0 % 1027 hPa 0,0 l/m 0,0 km/h (0 Bft) 0 min
03.01.2013 23:34 21,6 C 2,1 C 2,1 C 99 % 0 % 1027 hPa 0,0 l/m 0,0 km/h (0 Bft) 0 min
03.01.2013 23:37 21,6 C 2,1 C 2,1 C 99 % 0 % 1027 hPa 0,0 l/m 0,0 km/h (0 Bft) 0 min
03.01.2013 23:40 21,6 C 2,1 C 2,2 C 99 % 0 % 1027 hPa 0,0 l/m 0,9 km/h (0 Bft) 0 min
03.01.2013 23:43 21,6 C 2,2 C 2,3 C 99 % 0 % 1027 hPa 0,0 l/m 3,4 km/h (1 Bft) 0 min
03.01.2013 23:46 21,6 C 2,2 C 2,4 C 99 % 0 % 1027 hPa 0,0 l/m 2,5 km/h (1 Bft) 0 min
03.01.2013 23:49 21,6 C 2,3 C 2,1 C 99 % 0 % 1027 hPa 0,0 l/m 2,2 km/h (1 Bft) 0 min
03.01.2013 23:52 21,6 C 2,3 C 2,1 C 99 % 0 % 1027 hPa 0,0 l/m 3,1 km/h (1 Bft) 0 min
03.01.2013 23:54 21,6 C 2,2 C 1,9 C 99 % 0 % 1027 hPa 0,0 l/m 0,0 km/h (0 Bft) 0 min
03.01.2013 23:57 21,6 C 2,2 C 1,9 C 99 % 0 % 1027 hPa 0,0 l/m 0,0 km/h (0 Bft) 0 min
_ Min-Zeit 06:58 03:34 04:07 13:04 - 00:00 - 00:13 -
Minimum _ 16,0 C -3,4 C -4,4 C 91 % - 1025 hPa - 0,0 km/h (0 Bft) -
_ Max-Zeit 20:58 22:52 21:34 00:00 11:40 09:40 13:19 13:07 00:00
Maximum _ 21,9 C 2,3 C 2,5 C 99 % 25 % 1027 hPa 0,3 l/m 14,8 km/h
W-NW (3 Bft)
0 min
Durchschnitt _ 21,0 C -0,2 C -0,4 C 99 % #0 min. 1026 hPa #4,4 l/m 2,2 km/h (1 Bft) #0 min.